Location: Chervonnoye
(48.6000°N, 34.4000°E)
Time: 06:17:05
(UTC+00:00)

deb Kosmos-374 - Visible Passes

Search period start: 21 May 2022 00:00
Search period end: 31 May 2022 00:00
Orbit: 515 x 1652 km, 62.9° (Epoch: 20 May)

Date Brightness Start Highest point End Pass type
(mag) Time Alt. Az. Time Alt. Az. Time Alt. Az.
21 May ? 19:22:10 22° S 19:24:10 38° SE 19:27:42 10° NE visible
21 May ? 21:11:04 10° W 21:14:23 28° NNW 21:17:48 10° NNE visible
21 May ? 23:04:26 10° NNW 23:06:02 12° N 23:07:42 10° NNE visible
22 May ? 00:55:04 10° NNW 00:58:02 18° NNE 01:01:24 10° ENE visible
22 May ? 18:30:17 10° SSE 18:33:05 18° ESE 18:35:46 10° ENE visible
22 May ? 20:19:07 10° WSW 20:22:52 49° NW 20:26:38 10° NE visible
22 May ? 22:11:58 10° NW 22:14:04 14° NNW 22:16:16 10° NNE visible
23 May ? 00:03:57 10° NNW 00:06:09 14° NNE 00:08:33 10° NE visible
23 May ? 19:27:36 10° SW 19:31:31 82° SE 19:35:21 10° NE visible
23 May ? 21:19:28 10° WNW 21:22:13 19° NNW 21:25:05 10° NNE visible
23 May ? 23:12:33 10° NNW 23:14:10 12° N 23:15:52 10° NNE visible
24 May ? 01:02:17 10° NNW 01:05:55 25° NNE 01:10:16 10° E visible
24 May ? 18:36:37 10° SSW 18:40:19 38° SE 18:43:51 10° NE visible
24 May ? 20:27:11 10° W 20:30:31 28° NW 20:33:56 10° NNE visible
24 May ? 22:20:34 10° NNW 22:22:09 12° N 22:23:49 10° NNE visible
25 May ? 00:11:13 10° NNW 00:14:09 18° NNE 00:17:29 10° ENE visible
25 May ? 19:35:14 10° WSW 19:38:59 49° NW 19:42:45 10° NE visible
25 May ? 21:28:05 10° NW 21:30:11 14° NNW 21:32:22 10° NNE visible
25 May ? 23:20:04 10° NNW 23:22:15 14° NNE 23:24:37 10° NE visible
26 May ? 18:43:42 10° SW 18:47:38 81° SE 18:51:27 10° NE visible
26 May ? 20:35:33 10° WNW 20:38:19 19° NNW 20:41:11 10° NNE visible
26 May ? 22:28:40 10° NNW 22:30:15 12° N 22:31:56 10° NNE visible
27 May ? 00:18:24 10° NNW 00:22:01 24° NNE 00:26:19 10° E visible
27 May ? 19:43:15 10° W 19:46:36 28° NW 19:50:01 10° NNE visible
27 May ? 21:36:38 10° NNW 21:38:13 12° N 21:39:52 10° NNE visible
27 May ? 23:27:19 10° NNW 23:30:13 17° NNE 23:33:31 10° ENE visible
28 May ? 18:51:17 10° WSW 18:55:03 50° NW 18:58:49 10° NE visible
28 May ? 20:44:07 10° NW 20:46:13 14° NNW 20:48:26 10° NNE visible
28 May ? 22:36:09 10° NNW 22:38:18 14° NNE 22:40:37 10° NE visible
29 May ? 00:25:34 10° NNW 00:29:41 36° NE 00:34:52 10° ESE visible
29 May ? 19:51:34 10° WNW 19:54:21 19° NNW 19:57:13 10° NNE visible
29 May ? 21:44:42 10° NNW 21:46:16 12° N 21:47:55 10° NNE visible
29 May ? 23:34:27 10° NNW 23:38:02 24° NNE 23:42:18 10° E visible
30 May ? 18:59:15 10° W 19:02:37 28° NW 19:06:03 10° NNE visible
30 May ? 20:52:38 10° NNW 20:54:13 12° N 20:55:52 10° NNE visible
30 May ? 22:43:21 10° NNW 22:46:14 17° NNE 22:49:29 10° ENE visible
